Weather History for Buffalo, WY

Change the Weather History Date:

Thursday, March 21, 2013

  Actual Average Record
Temperature  
Mean Temperature 33 °F 36 °F  
Max Temperature 42 °F 47 °F 74 °F (2009)
Min Temperature 24 °F 24 °F -4 °F (2002)
Degree Days  
Heating Degree Days 32 29  
Month to date heating degree days 623 672  
Since 1 July heating degree days 5572 5912  
Cooling Degree Days 0 0  
Month to date cooling degree days 0 0  
Year to date cooling degree days 0 0  
Moisture  
Dew Point 24 °F    
Average Humidity 63    
Maximum Humidity 85    
Minimum Humidity 41    
Precipitation  
Precipitation T in 0.03 in 0.05 in (2005)
Month to date precipitation 0.07 0.52  
Year to date precipitation 0.68 1.29  
Sea Level Pressure  
Sea Level Pressure 29.67 in    
Wind  
Wind Speed 14 mph (NNW)    
Max Wind Speed 36 mph    
Max Gust Speed 47 mph    
Visibility 6 miles    
Events Fog , Snow    
T = Trace of Precipitation, MM = Missing Value Source: NWS Daily Summary

Daily Weather History Graph

Daily Weather History Graph

Search for Another Location

Airport:

Trip Planner

Search our weather history database for the weather conditions in past years. The results will help you decide how hot, cold, wet, or windy it might be!

Date:

Astronomy

Mar. 21, 2013 Rise Set
Actual Time 7:07 AM MDT 7:20 PM MDT
Civil Twilight 6:38 AM MDT 7:49 PM MDT
Nautical Twilight 6:04 AM MDT 8:24 PM MDT
Astronomical Twilight 5:29 AM MDT 8:59 PM MDT
Moon 1:42 PM MDT (3/21) 3:42 AM MDT (3/21)
Length of Visible Light 13h 11m
Length of Day
12h 13m
Waxing Gibbous, 69% of the Moon is Illuminated
Mar 21
Waxing Gibbous
Mar 27
Full
Apr 2
Last Quarter
Apr 10
New
Apr 18
First Quarter

Hourly Weather History & Observations

Time (MDT) Temp. Windchill Dew Point Humidity Pressure Visibility Wind Dir Wind Speed Gust Speed Precip Events Conditions
12:53 AM 35.1 °F 28.6 °F 21.0 °F 57% 29.57 in 10.0 mi WSW 8.1 mph - N/A   Clear
1:53 AM 35.1 °F 31.0 °F 21.0 °F 57% 29.56 in 10.0 mi SW 4.6 mph - N/A   Clear
2:53 AM 41.0 °F - 19.9 °F 43% 29.52 in 10.0 mi Calm Calm - N/A   Clear
3:53 AM 35.1 °F 27.9 °F 21.0 °F 57% 29.49 in 10.0 mi West 9.2 mph - N/A   Clear
4:53 AM 39.9 °F 35.1 °F 21.9 °F 49% 29.47 in 10.0 mi WNW 6.9 mph - N/A   Overcast
5:53 AM 41.0 °F 36.4 °F 23.0 °F 49% 29.49 in 10.0 mi NW 6.9 mph - N/A   Mostly Cloudy
6:53 AM 37.0 °F 29.3 °F 26.1 °F 65% 29.52 in 10.0 mi NNW 11.5 mph 27.6 mph N/A   Mostly Cloudy
7:53 AM 34.0 °F 21.3 °F 28.0 °F 79% 29.56 in 10.0 mi NNW 25.3 mph 33.4 mph N/A   Clear
8:53 AM 33.1 °F 20.1 °F 28.0 °F 82% 29.58 in 10.0 mi NNW 25.3 mph 40.3 mph N/A   Overcast
9:53 AM 34.0 °F 21.0 °F 27.0 °F 75% 29.61 in 10.0 mi NNW 26.5 mph 39.1 mph N/A   Scattered Clouds
10:38 AM 32.0 °F 18.4 °F 26.6 °F 80% 29.60 in 1.8 mi NNW 26.5 mph 40.3 mph 0.00 in Snow Light Snow
10:53 AM 32.0 °F 18.1 °F 28.0 °F 85% 29.64 in 1.2 mi NNW 27.6 mph 39.1 mph 0.00 in Snow Light Snow
11:03 AM 32.0 °F 18.6 °F 26.6 °F 80% 29.61 in 1.2 mi NNW 25.3 mph 40.3 mph 0.00 in Snow Light Snow
11:15 AM 30.2 °F 15.4 °F 26.6 °F 86% 29.62 in 1.0 mi NNW 28.8 mph 40.3 mph 0.00 in Snow Light Snow
11:26 AM 30.2 °F 15.7 °F 26.6 °F 86% 29.63 in 0.8 mi NNW 27.6 mph 39.1 mph 0.00 in Snow Light Snow
11:48 AM 30.2 °F 15.4 °F 26.6 °F 86% 29.64 in 0.5 mi NNW 28.8 mph 41.4 mph 0.00 in Fog , Snow Snow
11:53 AM 30.0 °F 15.4 °F 26.1 °F 85% 29.70 in 0.5 mi NNW 27.6 mph 41.4 mph 0.00 in Fog , Snow Snow
12:09 PM 30.2 °F 16.5 °F 26.6 °F 86% 29.65 in 0.8 mi NNW 24.2 mph 38.0 mph 0.00 in Snow Light Snow
12:32 PM 30.2 °F 17.1 °F 26.6 °F 86% 29.66 in 1.2 mi NNW 21.9 mph 35.7 mph 0.00 in Snow Light Snow
12:53 PM 30.0 °F 15.7 °F 26.1 °F 85% 29.72 in 1.0 mi NNW 26.5 mph 35.7 mph 0.00 in Snow Light Snow
12:59 PM 28.4 °F 13.5 °F 26.6 °F 93% 29.68 in 0.8 mi NNW 26.5 mph 38.0 mph 0.00 in Snow Light Snow
1:27 PM 28.4 °F 12.7 °F 24.8 °F 86% 29.68 in 0.8 mi NNW 29.9 mph 40.3 mph 0.00 in Snow Light Snow
1:53 PM 28.9 °F 15.1 °F 25.0 °F 85% 29.73 in 0.8 mi NNW 23.0 mph 38.0 mph 0.00 in Snow Light Snow
2:07 PM 30.2 °F 16.5 °F 26.6 °F 86% 29.68 in 0.8 mi NNW 24.2 mph 39.1 mph 0.00 in Snow Light Snow
2:14 PM 30.2 °F 16.8 °F 24.8 °F 80% 29.68 in 1.0 mi NNW 23.0 mph 36.8 mph 0.00 in Snow Light Snow
2:21 PM 30.2 °F 16.2 °F 24.8 °F 80% 29.69 in 1.5 mi NNW 25.3 mph 36.8 mph 0.00 in Snow Light Snow
2:25 PM 30.2 °F 16.2 °F 24.8 °F 80% 29.69 in 2.0 mi NNW 25.3 mph 38.0 mph 0.00 in Snow Light Snow
2:31 PM 30.2 °F 16.2 °F 24.8 °F 80% 29.69 in 3.0 mi NNW 25.3 mph 38.0 mph 0.00 in Snow Light Snow
2:53 PM 30.0 °F 16.3 °F 25.0 °F 82% 29.70 in 7.0 mi North 24.2 mph 38.0 mph 0.00 in   Overcast
3:53 PM 30.0 °F 15.7 °F 25.0 °F 82% 29.73 in 10.0 mi North 26.5 mph 36.8 mph N/A   Overcast
4:53 PM 32.0 °F 18.9 °F 21.9 °F 66% 29.73 in 10.0 mi North 24.2 mph 36.8 mph N/A   Mostly Cloudy
5:53 PM 32.0 °F 23.6 °F 21.9 °F 66% 29.75 in 10.0 mi North 10.4 mph 24.2 mph N/A   Overcast
6:53 PM 30.9 °F 25.2 °F 21.0 °F 67% 29.80 in 10.0 mi North 5.8 mph - N/A   Overcast
7:53 PM 28.0 °F 22.8 °F 19.9 °F 72% 29.85 in 10.0 mi SW 4.6 mph - N/A   Overcast
8:53 PM 30.0 °F - 19.0 °F 64% 29.85 in 10.0 mi Calm Calm - N/A   Partly Cloudy
9:53 PM 28.9 °F - 18.0 °F 64% 29.86 in 10.0 mi Calm Calm - N/A   Mostly Cloudy
10:53 PM 25.0 °F 20.7 °F 17.1 °F 72% 29.89 in 10.0 mi Variable 3.5 mph - N/A   Partly Cloudy
11:53 PM 27.0 °F 23.0 °F 12.9 °F 56% 29.90 in 10.0 mi North 3.5 mph - N/A   Partly Cloudy